Location: Henry
(41.9986°N, 104.0474°W)
Time: 10:48:45
(UTC+00:00)

ACS3 Solar Sail - Visible Passes

Search period start: 10 October 2024 00:00
Search period end: 20 October 2024 00:00
Orbit: 960 x 1036 km, 97.4° (Epoch: 10 October)

Date Brightness Start Highest point End Pass type
(mag) Time Alt. Az. Time Alt. Az. Time Alt. Az.
10 Oct 2.8 01:41:05 22° E 01:43:27 27° ENE 01:48:37 10° N visible
10 Oct 2.5 03:26:14 50° WSW 03:26:59 53° W 03:33:12 10° NNW visible
11 Oct 2.1 02:13:06 39° ESE 02:14:42 46° ENE 02:20:42 10° N visible
11 Oct 3.4 03:58:15 29° W 03:58:44 30° W 04:04:12 10° NNW visible
12 Oct 3.5 01:00:06 10° E 01:03:11 14° ENE 01:06:15 10° NNE visible
12 Oct 1.7 02:45:08 66° SE 02:46:06 80° ENE 02:52:27 10° N visible
12 Oct 4.1 04:30:17 16° W 04:30:39 16° W 04:34:27 10° NW visible
13 Oct 2.9 01:32:00 20° E 01:34:12 24° ENE 01:39:06 10° NNE visible
13 Oct 2.2 03:17:09 58° WSW 03:17:39 60° W 03:23:54 10° NNW visible
14 Oct 2.2 02:04:00 36° E 02:05:24 41° ENE 02:11:15 10° N visible
14 Oct 3.2 03:49:09 33° W 03:49:20 33° W 03:55:00 10° NNW visible
15 Oct 3.5 00:51:34 10° ENE 00:53:56 12° ENE 00:56:18 10° NE visible
15 Oct 1.7 02:36:00 65° ESE 02:36:44 72° ENE 02:43:02 10° N visible
15 Oct 4.0 04:21:09 19° W 04:21:11 19° W 04:25:26 10° NW visible
16 Oct 3.0 01:22:51 18° E 01:24:55 22° ENE 01:29:29 10° NNE visible
16 Oct 2.0 03:07:59 66° WSW 03:08:13 67° W 03:14:31 10° NNW visible
17 Oct 2.4 01:54:49 34° E 01:56:02 37° ENE 02:01:41 10° N visible
17 Oct 3.0 03:39:58 38° W 03:39:58 38° W 03:45:40 10° NNW visible
18 Oct 3.6 00:43:22 10° ENE 00:44:37 11° NE 00:45:53 10° NE visible
18 Oct 1.8 02:26:47 61° E 02:27:19 63° ENE 02:33:31 10° N visible
18 Oct 3.9 04:11:56 21° W 04:11:56 21° W 04:16:16 10° NW visible
19 Oct 3.1 01:13:36 17° E 01:15:31 19° ENE 01:19:43 10° NNE visible
19 Oct 1.9 02:58:45 76° W 02:58:45 76° W 03:05:02 10° NNW visible
19 Oct 4.5 04:43:54 11° W 04:43:54 11° W 04:44:52 10° WNW visible
